Location: Central Coast NSW, Australia
(33.2407°S, 151.4316°E)
Time: 21:18:50
(UTC+10:00)

BlueWalker 3 - Visible Passes

Search period start: 21 April 2024 00:00
Search period end: 01 May 2024 00:00
Orbit: 485 x 495 km, 53.2° (Epoch: 20 April)

Date Brightness Start Highest point End Pass type
(mag) Time Alt. Az. Time Alt. Az. Time Alt. Az.
23 Apr 1.9 05:36:57 10° NW 05:40:46 88° SW 05:44:37 10° SE visible
24 Apr 1.9 05:12:50 14° NW 05:16:03 86° NE 05:19:55 10° SE visible
25 Apr 1.9 04:50:18 47° NNW 04:51:19 81° NE 04:55:10 10° SE visible
26 Apr 2.7 04:27:29 49° ESE 04:27:29 49° ESE 04:30:23 10° SE visible
27 Apr 4.4 04:04:25 19° SE 04:04:25 19° SE 04:05:35 10° SE visible
27 Apr 3.8 05:38:52 13° WSW 05:40:21 15° SSW 05:42:37 10° S visible
28 Apr 3.8 05:15:36 16° SSW 05:15:36 16° SSW 05:17:53 10° S visible
29 Apr 4.2 04:52:09 13° S 04:52:09 13° S 04:53:07 10° S visible
